| time (UTC) | temp F | wind direction | speed MPH | gust MPH | rain 1hr in | rain 24hr in | rain mn in | humidity % | barometer mb |
| 20260506170034 | 64 | 358 | 5.0 | 10.0 | 0.00 | 0.00 | 0.00 | 63 | 1018.8 |
| 20260506164535 | 63 | 11 | 4.0 | 10.0 | 0.00 | 0.00 | 0.00 | 64 | 1018.9 |
| 20260506163035 | 62 | 329 | 7.0 | 18.0 | 0.00 | 0.00 | 0.00 | 65 | 1019.1 |
| 20260506161531 | 62 | 329 | 7.0 | 14.0 | 0.00 | 0.00 | 0.00 | 68 | 1019.2 |
| 20260506160035 | 60 | 351 | 7.0 | 14.0 | 0.00 | 0.00 | 0.00 | 72 | 1019.1 |
| 20260506154530 | 58 | 344 | 4.0 | 11.0 | 0.00 | 0.00 | 0.00 | 75 | 1019.2 |
| 20260506153035 | 57 | 344 | 3.0 | 6.0 | 0.00 | 0.00 | 0.00 | 77 | 1019.0 |
| 20260506151535 | 54 | 83 | 2.0 | 4.0 | 0.00 | 0.00 | 0.00 | 82 | 1019.0 |
| 20260506144535 | 53 | 109 | 2.0 | 4.0 | 0.00 | 0.00 | 0.00 | 86 | 1018.9 |
| 20260506143140 | 51 | 148 | 2.0 | 4.0 | 0.00 | 0.00 | 0.00 | 91 | 1018.9 |
| 20260506141535 | 48 | 146 | 2.0 | 3.0 | 0.00 | 0.00 | 0.00 | 94 | 1018.6 |
| 20260506140037 | 46 | 177 | 2.0 | 4.0 | 0.00 | 0.00 | 0.00 | 95 | 1018.5 |
| 20260506134536 | 45 | 176 | 3.0 | 4.0 | 0.00 | 0.00 | 0.00 | 95 | 1018.3 |
| 20260506133034 | 44 | 162 | 3.0 | 5.0 | 0.00 | 0.00 | 0.00 | 95 | 1018.2 |
| 20260506131537 | 44 | 166 | 3.0 | 7.0 | 0.00 | 0.00 | 0.00 | 94 | 1018.1 |
| 20260506124537 | 45 | 157 | 2.0 | 4.0 | 0.00 | 0.00 | 0.00 | 94 | 1017.9 |
| 20260506123033 | 44 | 146 | 2.0 | 3.0 | 0.00 | 0.00 | 0.00 | 95 | 1017.7 |
| 20260506121608 | 44 | 163 | 3.0 | 4.0 | 0.00 | 0.00 | 0.00 | 95 | 1017.6 |
| 20260506120042 | 44 | 162 | 2.0 | 4.0 | 0.00 | 0.00 | 0.00 | 95 | 1017.5 |
| 20260506113035 | 45 | 146 | 3.0 | 7.0 | 0.00 | 0.00 | 0.00 | 95 | 1017.2 |
| 20260506111537 | 45 | 166 | 3.0 | 5.0 | 0.00 | 0.00 | 0.00 | 95 | 1017.1 |
| 20260506110037 | 45 | 157 | 3.0 | 4.0 | 0.00 | 0.00 | 0.00 | 94 | 1017.0 |
| 20260506104534 | 45 | 157 | 3.0 | 4.0 | 0.00 | 0.00 | 0.00 | 94 | 1016.9 |
| 20260506103109 | 46 | 164 | 3.0 | 4.0 | 0.00 | 0.00 | 0.00 | 94 | 1016.7 |
| 20260506094538 | 46 | 163 | 3.0 | 4.0 | 0.00 | 0.00 | 0.00 | 93 | 1016.6 |
| 20260506091536 | 47 | 157 | 3.0 | 4.0 | 0.00 | 0.00 | 0.00 | 93 | 1016.5 |
| 20260506090037 | 47 | 161 | 3.0 | 4.0 | 0.00 | 0.00 | 0.00 | 93 | 1016.5 |
| 20260506083151 | 47 | 148 | 2.0 | 4.0 | 0.00 | 0.00 | 0.00 | 92 | 1016.2 |
| 20260506081535 | 48 | 161 | 3.0 | 4.0 | 0.00 | 0.00 | 0.00 | 92 | 1016.2 |
| 20260506073038 | 49 | 157 | 3.0 | 4.0 | 0.00 | 0.00 | 0.00 | 91 | 1015.9 |
| 20260506071643 | 50 | 143 | 2.0 | 4.0 | 0.00 | 0.00 | 0.00 | 91 | 1015.9 |
| 20260506050108 | 55 | 136 | 2.0 | 3.0 | 0.00 | 0.00 | 0.00 | 80 | 1015.1 |
| 20260506043110 | 59 | 118 | 2.0 | 2.0 | 0.00 | 0.00 | 0.00 | 74 | 1014.9 |
| 20260506041609 | 59 | 112 | 0.0 | 2.0 | 0.00 | 0.00 | 0.00 | 72 | 1014.9 |
| 20260506040038 | 60 | 105 | 0.0 | 3.0 | 0.00 | 0.00 | 0.00 | 70 | 1014.6 |
| 20260506033109 | 63 | 24 | 1.0 | 3.0 | 0.00 | 0.00 | 0.00 | 65 | 1014.0 |
| 20260506031628 | 65 | 37 | 1.0 | 5.0 | 0.00 | 0.00 | 0.00 | 62 | 1013.9 |
| 20260506030037 | 66 | 16 | 3.0 | 6.0 | 0.00 | 0.00 | 0.00 | 61 | 1013.8 |
| 20260506024535 | 67 | 16 | 5.0 | 8.0 | 0.00 | 0.00 | 0.00 | 59 | 1013.5 |
| 20260506023034 | 69 | 20 | 6.0 | 11.0 | 0.00 | 0.00 | 0.00 | 56 | 1013.4 |
| 20260506021536 | 70 | 17 | 6.0 | 10.0 | 0.00 | 0.00 | 0.00 | 55 | 1013.3 |
| 20260506020035 | 71 | 18 | 7.0 | 11.0 | 0.00 | 0.00 | 0.00 | 54 | 1013.2 |
| 20260506013034 | 74 | 15 | 7.0 | 11.0 | 0.00 | 0.00 | 0.00 | 50 | 1013.0 |
| 20260506010034 | 76 | 316 | 4.0 | 8.0 | 0.00 | 0.00 | 0.00 | 46 | 1012.9 |
| 20260506004536 | 75 | 305 | 5.0 | 12.0 | 0.00 | 0.00 | 0.00 | 47 | 1013.0 |
| 20260506003035 | 76 | 314 | 5.0 | 12.0 | 0.00 | 0.00 | 0.00 | 49 | 1012.9 |
| 20260506001534 | 75 | 6 | 7.0 | 14.0 | 0.00 | 0.00 | 0.00 | 53 | 1012.9 |
| 20260506000036 | 74 | 18 | 7.0 | 14.0 | 0.00 | 0.00 | 0.00 | 52 | 1013.0 |
| 20260505234534 | 74 | 15 | 7.0 | 13.0 | 0.00 | 0.00 | 0.00 | 53 | 1013.1 |
| 20260505233109 | 74 | 15 | 7.0 | 13.0 | 0.00 | 0.00 | 0.00 | 53 | 1013.2 |
| 20260505231536 | 74 | 12 | 7.0 | 12.0 | 0.00 | 0.00 | 0.00 | 53 | 1013.2 |
| 20260505230036 | 74 | 17 | 6.0 | 11.0 | 0.00 | 0.00 | 0.00 | 53 | 1013.3 |
| 20260505223035 | 73 | 21 | 7.0 | 13.0 | 0.00 | 0.00 | 0.00 | 53 | 1013.5 |
| 20260505221536 | 74 | 11 | 7.0 | 11.0 | 0.00 | 0.00 | 0.00 | 53 | 1013.6 |
| 20260505220110 | 74 | 13 | 6.0 | 11.0 | 0.00 | 0.00 | 0.00 | 52 | 1013.7 |
| 20260505214530 | 73 | 18 | 6.0 | 10.0 | 0.00 | 0.00 | 0.00 | 53 | 1013.8 |
| 20260505213151 | 73 | 9 | 6.0 | 11.0 | 0.00 | 0.00 | 0.00 | 53 | 1013.9 |
| 20260505211535 | 73 | 13 | 7.0 | 12.0 | 0.00 | 0.00 | 0.00 | 54 | 1013.9 |
| 20260505210036 | 72 | 11 | 5.0 | 12.0 | 0.00 | 0.00 | 0.00 | 54 | 1014.0 |
| 20260505204531 | 71 | 9 | 6.0 | 10.0 | 0.00 | 0.00 | 0.00 | 55 | 1014.2 |
| 20260505203110 | 71 | 5 | 6.0 | 11.0 | 0.00 | 0.00 | 0.00 | 55 | 1014.3 |
| 20260505201533 | 71 | 11 | 6.0 | 10.0 | 0.00 | 0.00 | 0.00 | 55 | 1014.3 |
| 20260505200143 | 71 | 3 | 6.0 | 12.0 | 0.00 | 0.00 | 0.00 | 53 | 1014.3 |
| 20260505194531 | 71 | 7 | 5.0 | 12.0 | 0.00 | 0.00 | 0.00 | 52 | 1014.4 |
| 20260505193032 | 70 | 11 | 5.0 | 12.0 | 0.00 | 0.00 | 0.00 | 54 | 1014.5 |
| 20260505191536 | 69 | 27 | 4.0 | 10.0 | 0.00 | 0.00 | 0.00 | 55 | 1014.6 |
| 20260505190035 | 69 | 1 | 4.0 | 8.0 | 0.00 | 0.00 | 0.00 | 55 | 1014.6 |
| 20260505184529 | 68 | 2 | 5.0 | 10.0 | 0.00 | 0.00 | 0.00 | 55 | 1014.7 |
| 20260505183033 | 68 | 9 | 5.0 | 10.0 | 0.00 | 0.00 | 0.00 | 55 | 1014.8 |
| 20260505174530 | 66 | 7 | 4.0 | 10.0 | 0.00 | 0.00 | 0.00 | 59 | 1014.6 |
| 20260505173035 | 66 | 4 | 4.0 | 7.0 | 0.00 | 0.00 | 0.00 | 60 | 1014.6 |
| 20260505171535 | 65 | 354 | 3.0 | 7.0 | 0.00 | 0.00 | 0.00 | 61 | 1014.6 |